Location: Byszew
(52.1813°N, 19.2693°E)
Time: 23:15:55
(UTC+00:00)

Envisat - Pass Details

Date: 31 January 2022
Orbit: 764 x 765 km, 98.2° (Epoch: 22 May)

Event Time Altitude Azimuth Distance (km) Brightness Sun altitude
Rises 02:49:35 0° 21° (NNE) 3,244 6.7 -32.9°
Reaches altitude 10° 02:52:11 10° 33° (NNE) 2,313 6.0 -32.5°
Maximum altitude 02:56:38 30° 93° (E) 1,360 4.7 -31.9°
Drops below altitude 10° 03:01:03 10° 154° (SSE) 2,299 5.6 -31.2°
Sets 03:03:37 0° 165° (SSE) 3,221 6.3 -30.8°
